Location: Jonesburg (historical)
(37.0042°N, 96.1044°W)
Time: 04:20:48
(UTC+00:00)

Daily predictions for brighter satellites

Satellite Brightness Start Highest point End
(mag) Time Altitude Azimuth Time Altitude Azimuth Time Altitude Azimuth
CSL-04 Rocket 4.5 00:38:54 10° SE 00:43:37 32° ENE 00:48:23 10° N
COSMO-SKYMED 1 3.1 00:41:31 10° N 00:45:50 65° WNW 00:50:07 10° SSW
Cosmos 2233 Rocket 4.1 00:42:31 10° S 00:48:46 88° E 00:54:59 10° N
Cosmos 1603 3.7 00:46:00 10° NNW 00:51:37 64° ENE 00:57:10 10° SSE
NOSS 2-2 (E) 3.5 00:50:31 10° SW 00:53:59 65° NW 00:57:38 10° NNE
H-2A R/B 2.7 00:54:03 10° SE 00:58:26 33° ENE 01:02:56 10° N
Meteor 1-21 4.3 00:52:55 10° N 00:58:26 56° E 01:03:54 10° SSE
SJ 16-02 4.1 00:55:23 10° WSW 00:58:53 23° WNW 01:02:23 10° NNW
ATLAS 2AS CENTAUR R/B 4.2 00:55:26 10° SE 01:00:00 17° ESE 01:04:36 10° ENE
BREEZE-M TANK 4.2 00:40:05 10° WSW 01:00:07 87° NNW 01:04:39 10° ENE
Sich 1 Rocket 3.8 00:56:00 10° SSE 01:00:17 48° E 01:04:39 10° NNE
Cosmos 1975 3.4 00:58:21 10° SSW 01:02:23 66° W 01:06:27 10° N
NOSS 2-2 (D) 3.4 00:59:28 10° SW 01:02:58 68° NW 01:06:36 10° NNE
Okean 2 3.4 01:00:08 10° N 01:04:19 86° E 01:08:27 10° S
CENTAUR R/B 4.4 01:02:21 10° N 01:08:24 22° NE 01:14:15 12° E
Cosmos 1842 3.2 01:05:13 10° N 01:09:06 88° W 01:12:58 10° S
CZ-4 R/B 1.7 01:08:29 10° S 01:12:42 75° W 01:16:55 10° NNW
Okean 2 Rocket 3.4 01:12:25 10° SSE 01:16:42 45° E 01:20:59 10° NNE
USA 116 3.8 01:13:47 10° N 01:17:25 78° WNW 01:21:30 10° SSW
Cosmos 1707 3.2 01:15:38 10° N 01:19:14 38° E 01:22:48 10° SSE
Cosmos 1300 Rocket 3.8 01:15:11 10° SSE 01:19:22 47° E 01:23:37 10° NNE
Ariane Rocket 4.1 01:16:43 15° ESE 01:19:34 24° ENE 01:23:34 10° NNE
DELTA 2 R/B (1) 3.7 01:19:27 10° WNW 01:24:59 69° SSW 01:29:07 18° ESE
Okean-O 3.9 01:22:54 10° S 01:27:07 44° W 01:31:22 10° NNW
ARGOS 3.3 01:22:34 10° SE 01:27:42 49° ENE 01:32:52 10° N
YAOGAN 1 3.1 01:24:18 10° S 01:28:34 60° W 01:32:51 10° NNW
In-Cosmos 22 4.4 01:24:21 10° N 01:29:24 42° ENE 01:34:17 11° SSE
SJ-6B 4.1 01:33:14 20° ENE 01:33:14 20° ENE 01:35:45 10° NNE
Cosmos 1437 4.1 01:30:25 10° NNW 01:33:13 37° W 01:36:00 10° SSW
SL-08 RB Rocket 4.3 01:30:56 19° SE 01:33:43 37° ENE 01:37:55 10° N
CZ-2C R/B 3.3 01:30:26 10° S 01:35:36 78° WSW 01:41:07 10° NNW
CZ-2C R/B 3.1 01:30:59 10° NNE 01:36:13 41° E 01:41:28 10° SSE
Cosmos 2298 Rocket 3.9 01:31:44 10° S 01:37:02 75° ESE 01:42:22 10° NNE
Cosmos 1513 Rocket 4.5 01:36:30 10° S 01:42:48 89° W 01:49:02 10° N
USA 186 2.6 01:43:19 31° NE 01:43:19 31° NE 01:45:44 10° N
MOS 1 Rocket 3.2 01:39:17 10° N 01:43:41 76° WNW 01:47:55 10° SSW
Cosmos 1536 Rocket 4.0 01:39:55 10° N 01:44:08 41° E 01:45:33 31° ESE
Cosmos 2285 Rocket 4.1 01:41:26 10° S 01:47:24 48° ESE 01:53:26 10° NNE
Cosmos 1025 Rocket 3.0 01:44:41 10° N 01:49:04 65° E 01:51:49 22° SSE
Cosmos 1844 3.6 01:45:23 10° S 01:51:00 64° ESE 01:56:37 10° NNE
NOSS 3-2 (A) 4.4 01:44:39 10° NNW 01:52:08 51° NE 01:56:29 28° ESE
Cosmos 1464 Rocket 4.1 01:46:49 10° S 01:52:55 77° W 01:59:06 10° N
ISS -1.0 01:50:44 10° WNW 01:53:01 17° NNW 01:55:17 10° NNE
Cosmos 1844 Rocket 2.6 01:50:01 10° SSW 01:55:34 88° ESE 02:01:11 10° NNE
Cosmos 2151 Rocket 3.6 01:53:59 10° S 01:58:26 84° W 02:02:56 10° N
Cosmos 1867 3.6 01:53:02 10° NNW 01:58:32 82° WSW 02:01:45 25° SSE
Cosmos 1092 Rocket 4.3 01:58:13 10° N 02:04:00 41° ENE 02:05:05 38° ESE
Cosmos 2150 Rocket 4.5 02:00:55 10° SSW 02:06:13 64° WNW 02:11:37 10° NNE
CZ-2C R/B 1.3 02:03:54 10° W 02:07:04 51° SW 02:07:04 51° SW
MetOp-A 4.2 02:07:40 44° ESE 02:08:57 56° ENE 02:14:11 10° N
Cosmos 1125 Rocket 3.4 02:04:59 10° SSW 02:10:17 89° WNW 02:15:38 10° NNE
USA 234 3.2 02:04:41 10° NE 02:11:09 66° SE 02:17:39 10° SW
MOS 1 4.2 02:10:42 38° SE 02:12:50 68° ENE 02:18:30 10° N
Milstar 3 Cent rocket 3.2 02:08:13 10° SW 02:13:53 29° S 02:14:14 29° SSE
Longmarch 3A Rocket 3.7 02:12:13 10° SW 02:12:56 16° SSW 02:12:56 16° SSW
DMSP B5D2-2 4.0 02:13:26 10° NNE 02:18:45 88° ESE 02:24:01 10° SSW
NOSS 3-4 (A) 3.2 02:21:40 10° SSW 02:27:28 70° ESE 02:30:10 34° NE
NOSS 3-4 (C) 3.2 02:21:47 10° SSW 02:27:35 69° ESE 02:29:46 40° NE
NOSS 3-2 (C) 4.3 02:20:18 10° NNW 02:27:51 54° NE 02:29:49 46° E
Cosmos 1674 3.9 02:26:31 10° N 02:28:51 35° N 02:28:51 35° N
Resurs 01 Rocket 3.6 02:36:49 19° NNE 02:36:49 19° NNE 02:38:17 10° N
Exosat Rocket 4.2 02:31:44 10° SSW 02:37:34 57° WNW 02:42:31 10° NNE
H-2A R/B 4.1 02:33:55 10° SSW 02:37:53 24° W 02:41:54 10° NW
Cosmos 1048 Rocket 4.3 02:37:26 10° NNW 02:42:43 63° WSW 02:43:27 56° SW
ATLAS 2AS CENTAUR R/B 2.9 02:42:05 10° SSW 02:49:58 88° SE 02:57:58 10° NNE
BREEZE-M DEB (TANK) 3.8 02:48:29 10° NW 02:52:40 86° SW 02:54:11 62° SE
Okean 1 Rocket 4.2 02:53:24 43° WNW 02:53:24 43° WNW 02:57:13 10° N
Ariane Rocket 4.3 02:56:56 31° SW 02:58:17 36° W 03:02:57 10° NNW
CENTAUR R/B 3.1 02:52:04 10° NNW 03:00:26 78° ENE 03:01:27 70° ESE
Cosmos 2082 Rocket 4.4 03:04:18 10° N 03:05:22 13° NNE 03:05:22 13° NNE
ATLAS 3B R/B 3.9 03:02:26 10° NNW 03:07:18 30° NNE 03:07:18 30° NNE
Meteor 2-5 Rocket 4.3 03:05:34 10° NNW 03:10:22 56° WNW 03:10:22 56° WNW
USA 238 DEB 4.1 03:09:02 10° NW 03:16:12 59° WSW 03:16:45 57° SW
USA 238 4.1 03:09:07 10° NW 03:16:18 59° WSW 03:16:50 58° SW
USA 234 4.4 03:52:10 32° N 03:53:52 37° NNW 03:59:44 10° W
Cosmos 1980 Rocket 3.9 08:52:47 29° NE 08:52:47 29° NE 08:55:37 10° NNE
SL-16 R/B 4.3 09:05:31 19° ESE 09:06:40 20° E 09:10:39 10° NE
ADEOS II 4.2 09:07:44 10° N 09:09:07 18° N 09:09:07 18° N
ARIANE 5 R/B 4.2 09:10:20 10° NNE 09:12:41 28° NNE 09:12:41 28° NNE
IDEFIX/ARIANE 42P 3.7 09:16:31 10° NNE 09:20:03 41° NE 09:20:03 41° NE
SJ 16-02 3.8 09:26:00 10° NNE 09:29:19 20° ENE 09:32:37 10° ESE
H-2A R/B 4.2 09:31:43 10° SE 09:35:20 26° ENE 09:39:02 10° NNE
Cosmos 1238 Rocket 4.1 09:31:02 10° N 09:37:32 69° E 09:39:04 50° SE
BREEZE-M DEB (TANK) 3.9 09:39:27 69° WSW 09:40:31 84° NNW 10:01:29 10° ENE
Lacrosse 5 3.8 09:45:25 19° NNW 09:45:25 19° NNW 09:48:04 10° NNE
X-37B 3.7 09:51:10 15° NE 09:51:10 15° NE 09:52:04 10° NE
NOSS 3-3 (A) 3.9 10:06:31 55° WNW 10:06:49 56° NW 10:13:02 10° NNE
NOSS 3-3 (C) 3.9 10:06:41 55° WNW 10:06:57 56° NW 10:13:07 10° NNE
USA 267 4.2 10:02:35 10° NNE 10:08:17 33° NNW 10:09:48 30° NW
Cosmos 1727 Rocket 4.3 10:03:47 10° S 10:10:03 68° E 10:16:21 10° NNE
DASH 4.4 10:14:07 26° S 10:14:07 26° S 10:16:09 10° SSE
Cosmos 1339 Rocket 4.4 10:14:20 47° SW 10:15:55 62° W 10:22:05 10° N
Cosmos 921 Rocket 4.1 10:20:07 31° NNW 10:20:07 31° NNW 10:22:42 10° N
SL-8 R/B 4.5 10:17:55 27° NNW 10:20:09 48° NNE 10:24:46 10° ESE
Cosmos 1812 3.7 10:21:49 36° NNW 10:21:49 36° NNW 10:24:19 10° N
Meteor 1-27 Rocket 4.2 10:15:52 10° S 10:21:43 64° E 10:27:34 10° NNE
Cosmos 2360 Rocket 3.5 10:18:49 10° S 10:24:02 39° ESE 10:29:16 10° NE
Cosmos 1898 Rocket 4.3 10:20:58 10° N 10:26:07 53° ENE 10:31:16 10° SSE
ADEOS Rocket 3.8 10:20:56 10° SSE 10:27:43 58° ENE 10:33:49 10° N
MSX 4.1 10:23:25 10° N 10:28:54 46° WNW 10:30:08 40° WSW
Cosmos 1707 Rocket 3.6 10:26:34 23° S 10:29:12 77° E 10:33:32 10° N
Cosmos 1666 3.3 10:26:10 10° N 10:29:55 56° E 10:33:37 10° SSE
IRIDIUM 104 4.2 10:24:52 10° N 10:30:06 82° W 10:35:18 10° S
Cosmos 1980 Rocket 3.6 10:34:34 20° NW 10:34:34 20° NW 10:38:32 10° N
IRIDIUM 114 4.2 10:34:03 10° N 10:39:13 66° W 10:44:23 10° S
USA 234 3.3 10:34:03 10° SE 10:40:34 85° NE 10:47:08 10° NW
Cosmos 2322 Rocket 2.1 10:37:25 24° SSW 10:40:54 75° WNW 10:46:37 10° NNE
FALCON 9 DEB 3.7 10:43:18 41° NW 10:43:26 41° NW 10:46:43 10° NE
Cosmos 2263 Rocket 2.1 10:39:25 10° NNW 10:45:02 66° WSW 10:50:39 10° S
USA 32 4.0 10:39:49 10° N 10:45:05 89° E 10:50:20 10° S
SL-4 R/B 2.5 10:43:55 38° W 10:45:22 54° NW 10:50:02 10° NE
IRIDIUM 103 4.4 10:43:16 10° NNW 10:48:20 53° W 10:53:23 10° SSW
Meteor 1-4 Rocket 3.6 10:50:45 26° NW 10:50:45 26° NW 10:53:04 10° NNW
SL-16 R/B 2.4 10:47:26 27° SW 10:50:19 50° WNW 10:55:50 10° NNE
Cosmos 1733 Rocket 3.8 10:46:42 10° N 10:50:57 53° E 10:55:10 10° SSE
Cosmos 1937 Rocket 3.9 10:46:26 10° NNW 10:51:33 65° ENE 10:56:38 10° SSE
Cosmos 2237 4.3 10:46:23 10° SSW 10:52:05 79° ESE 10:57:48 10° NNE
ARIANE 5 R/B 4.5 10:51:55 10° NW 10:53:01 12° NW 10:53:01 12° NW
Cosmos 1814 Rocket 4.3 10:49:45 10° S 10:54:53 70° ESE 11:00:07 10° NNE
Cosmos 44 Rocket 3.2 10:51:43 17° SSW 10:55:21 88° ESE 11:00:11 10° NNE
Cosmos 841 Rocket 3.4 10:50:50 10° SSW 10:56:02 89° WNW 11:01:19 10° NNE
ADEOS 3.6 10:51:28 10° NNE 10:56:43 86° ESE 11:01:56 10° SSW
Cosmos 1869 Rocket 4.1 10:54:09 10° NNW 10:58:02 33° W 11:01:55 10° SSW
CZ-2C R/B 2.8 10:54:49 10° N 10:59:44 46° WNW 11:04:21 12° SW
IDEFIX/ARIANE 42P 4.3 10:57:52 10° NNW 11:00:45 15° WNW 11:00:51 15° WNW
Cosmos 1862 Rocket 3.5 10:59:00 10° S 11:03:24 89° E 11:07:47 10° N
Cosmos 2173 Rocket 4.1 10:57:55 10° N 11:04:18 86° E 11:10:40 10° S
Cosmos 1763 Rocket 4.1 11:01:39 21° WSW 11:04:37 37° WNW 11:09:32 10° N
SJ-6F 4.4 11:02:17 10° N 11:06:20 61° WNW 11:10:20 10° SSW
CZ-4B R/B 1.1 11:03:38 10° SSE 11:06:45 88° WSW 11:09:58 10° NNW
SJ 16-02 2.0 11:04:03 10° NW 11:07:54 30° W 11:11:44 10° SSW
Cosmos 1743 4.0 11:05:44 10° N 11:09:22 43° E 11:12:59 10° SSE
PSLV R/B 4.5 11:06:10 10° NNW 11:09:44 27° WNW 11:11:42 19° WSW
H-2A R/B 3.1 11:07:39 10° SSW 11:11:12 24° W 11:14:50 10° NW
Cosmos 2219 Rocket 3.8 11:09:17 10° S 11:14:24 36° ESE 11:19:34 10° NE
Cosmos 1689 Rocket 3.7 11:12:33 10° SE 11:15:18 37° ENE 11:18:05 10° N
Cosmos 1570 Rocket 4.1 11:13:32 10° SSW 11:18:43 56° WNW 11:23:59 10° N
COSMOS 2428 4.4 11:15:59 10° S 11:21:07 36° ESE 11:26:18 10° NE
ERS-2 3.0 11:18:37 10° SSW 11:21:44 26° W 11:24:52 10° NW
Cosmos 2061 Rocket 4.2 11:18:26 10° N 11:24:54 83° E 11:31:19 10° S
Okean 1 3.4 11:22:14 10° S 11:26:17 84° E 11:30:20 10° N
X-37B 1.6 11:23:45 10° NW 11:26:49 43° NNE 11:29:52 10° E
Intercosmos 25 3.3 11:24:15 10° SSW 11:28:56 67° W 11:32:20 10° N
CZ-4B R/B 2.8 11:26:43 10° NNE 11:30:21 75° ESE 11:33:54 10° S
Cosmos 2333 Rocket 3.0 11:25:14 10° S 11:30:52 58° ESE 11:36:31 10° NNE
Cosmos 540 Rocket 3.9 11:26:15 10° SW 11:31:05 41° WNW 11:35:59 10° N
CZ-4B R/B 4.2 11:27:55 10° N 11:32:12 58° WNW 11:36:35 10° SSW
BREEZE M DEB (TANK) 3.1 11:23:52 10° NW 11:32:30 53° SW 11:35:38 10° SSE
Meteor 2-20 Rocket 4.5 11:26:23 10° S 11:32:32 83° W 11:38:42 10° N
Cosmos 2016 Rocket 3.9 11:28:54 10° N 11:35:01 81° W 11:41:06 10° S
Meteor PRIRODA 3.9 11:32:03 10° NNE 11:35:43 74° ESE 11:39:20 10° S
Cosmos 1484 Rocket 3.3 11:32:01 10° N 11:35:45 39° WNW 11:39:28 10° SW
Meteor 1-18 Rocket 4.4 11:30:59 10° S 11:36:32 81° E 11:42:05 10° N
COSMO-SKYMED 1 2.9 11:33:51 10° SSE 11:38:09 73° ENE 11:42:29 10° N
H-2A R/B 4.3 11:34:28 10° NNE 11:38:33 38° E 11:42:42 10° SSE
ALOS 2.6 11:34:17 10° N 11:38:43 45° WNW 11:43:08 10° SW
Cosmos 2322 3.8 11:33:35 10° SSW 11:39:15 89° ESE 11:44:56 10° NNE
Meteor 1-19 Rocket 4.3 11:36:18 10° S 11:41:44 83° E 11:47:19 10° N
Cosmos 1536 4.0 11:40:31 10° NW 11:43:44 23° W 11:46:57 10° SW
ARGOS Delta rocket 4.4 11:41:13 10° NNE 11:45:43 63° E 11:50:26 10° S
Meteor 1-31 Rocket 3.4 11:43:49 10° N 11:47:18 33° WNW 11:50:47 10° SW
Cosmos 1437 Rocket 3.1 11:44:27 10° SSW 11:47:59 39° WNW 11:51:36 10° N
